User: anonymous   Login
Location: Unspecified
(0.0000°N, 0.0000°E)
Time: 19:09:34
(UTC+00:00)
Language:

CRYOSAT 2 - Orbit

View from above orbital plane
View from above orbital plane
View from above satellite
View from above satellite

Ground track
Ground track

The orbit data is extracted from the following two-line orbital elements,

1 36508U 10013A   19047.50192453 -.00000020  00000-0 -57078-5 0  9993
2 36508  92.0300 349.7796 0009607  73.8566 286.3698 14.52171924469580
Epoch (UTC): 16 February 2019 12:02:46
Eccentricity: 0.0009607
inclination: 92.0300°
perigee height: 712 km
apogee height: 725 km
right ascension of ascending node: 349.7796°
argument of perigee: 73.8566°
revolutions per day: 14.52171924
mean anomaly at epoch: 286.3698°
orbit number at epoch: 46958

The dashed part of the orbit path shows where the satellite is in the earth's shadow,  

DLR